Beaver Lake Weather Center

Moon Phase Calendar



Beaver Lake Water Level
Online Cameras

 


      

Current Conditions in Prairie Creek
12/6/2021 4:51:15 PM

39°F
Feels Like 33
Clear
Humidity
45%
Pressure
30.27"
Wind
8 mph (N)
Dew Point
21°F
UV Index
0/10 (Low)
Visibility
6 mi

Hourly Forecast

Date & Time Mon, Dec 6
4:00 PM
Mon, Dec 6
5:00 PM
Mon, Dec 6
6:00 PM
Mon, Dec 6
7:00 PM
Mon, Dec 6
8:00 PM
Mon, Dec 6
9:00 PM
Mon, Dec 6
10:00 PM
Mon, Dec 6
11:00 PM
Tue, Dec 7
12:00 AM
Tue, Dec 7
1:00 AM
Tue, Dec 7
2:00 AM
Tue, Dec 7
3:00 AM
Tue, Dec 7
4:00 AM
Tue, Dec 7
5:00 AM
Tue, Dec 7
6:00 AM
Tue, Dec 7
7:00 AM
Tue, Dec 7
8:00 AM
Tue, Dec 7
9:00 AM
Tue, Dec 7
10:00 AM
Tue, Dec 7
11:00 AM
Tue, Dec 7
12:00 PM
Tue, Dec 7
1:00 PM
Tue, Dec 7
2:00 PM
Tue, Dec 7
3:00 PM
Tue, Dec 7
4:00 PM
Tue, Dec 7
5:00 PM
Tue, Dec 7
6:00 PM
Tue, Dec 7
7:00 PM
Tue, Dec 7
8:00 PM
Tue, Dec 7
9:00 PM
Tue, Dec 7
10:00 PM
Tue, Dec 7
11:00 PM
Wed, Dec 8
12:00 AM
Wed, Dec 8
1:00 AM
Wed, Dec 8
2:00 AM
Wed, Dec 8
3:00 AM
Wed, Dec 8
4:00 AM
Wed, Dec 8
5:00 AM
Wed, Dec 8
6:00 AM
Wed, Dec 8
7:00 AM
Wed, Dec 8
8:00 AM
Wed, Dec 8
9:00 AM
Wed, Dec 8
10:00 AM
Wed, Dec 8
11:00 AM
Wed, Dec 8
12:00 PM
Wed, Dec 8
1:00 PM
Wed, Dec 8
2:00 PM
Wed, Dec 8
3:00 PM
Condition
Clear

Clear

Clear

Clear

Clear

Clouds

Clouds

Clouds

Clouds

Clouds

Clouds

Clouds

Clouds

Clouds

Clouds

Clouds

Clouds

Clouds

Clouds

Clouds

Clouds

Clouds

Clouds

Clouds

Clouds

Clouds

Clouds

Clouds

Clouds

Clouds

Clouds

Clouds

Clouds

Clouds

Clouds

Clouds

Clouds

Clouds

Clouds

Clear

Clear

Clear

Clear

Clear

Clear

Clouds

Clouds

Clouds
Temperature 39°F39°F38°F36°F34°F32°F30°F30°F29°F29°F28°F29°F28°F28°F28°F28°F30°F35°F39°F42°F45°F47°F48°F47°F45°F40°F39°F39°F38°F38°F39°F40°F40°F40°F38°F38°F38°F36°F36°F36°F38°F43°F48°F52°F55°F57°F58°F59°F
Feels Like 33°F35°F34°F33°F31°F28°F25°F25°F24°F24°F23°F23°F21°F22°F22°F22°F25°F29°F33°F36°F40°F43°F44°F43°F42°F38°F36°F36°F36°F35°F35°F40°F40°F40°F38°F38°F38°F36°F36°F36°F38°F43°F47°F49°F52°F54°F55°F56°F
Cloudiness 1%1%1%1%1%11%30%44%46%92%91%85%85%70%63%89%64%55%66%73%77%100%100%100%100%100%100%100%100%100%100%100%100%100%100%100%100%87%78%6%5%7%6%6%10%85%84%66%
Visibility 6 mi6 mi6 mi6 mi6 mi6 mi6 mi6 mi6 mi6 mi6 mi6 mi6 mi6 mi6 mi6 mi6 mi6 mi6 mi6 mi6 mi6 mi6 mi6 mi6 mi6 mi6 mi6 mi6 mi6 mi6 mi6 mi6 mi6 mi6 mi6 mi6 mi6 mi6 mi6 mi6 mi6 mi6 mi6 mi6 mi6 mi6 mi6 mi
Precipitation 0%0%0%0%0%0%0%0%0%0%0%0%0%0%0%0%0%0%0%0%0%0%0%0%0%0%0%0%0%0%0%0%0%0%0%0%0%0%0%0%0%0%0%0%0%0%0%0%
Humidity 43%45%46%48%51%54%59%60%61%62%63%62%63%62%62%60%56%45%38%34%31%31%33%38%46%54%58%58%59%60%59%59%59%61%64%66%68%72%73%74%71%59%51%45%41%39%38%39%
Dew Point 20°F21°F20°F20°F20°F19°F17°F17°F17°F17°F17°F17°F17°F16°F16°F15°F16°F15°F15°F15°F16°F18°F20°F22°F25°F25°F24°F25°F25°F25°F25°F26°F26°F27°F27°F27°F28°F28°F28°F28°F28°F29°F30°F31°F31°F32°F32°F34°F
Pressure 30.27"30.27"30.27"30.3"30.33"30.33"30.33"30.33"30.3"30.3"30.24"30.24"30.18"30.18"30.21"30.18"30.18"30.18"30.15"30.09"30.06"30"29.97"29.94"29.97"30"30"30.03"30.03"30"29.97"30"30"30"30"30"30"30"30.03"30.03"30.03"30.03"30.03"30.03"29.97"29.94"29.91"29.88"
Wind Speed 8.6 mph5.3 mph4.3 mph4.2 mph4.1 mph4.4 mph4.7 mph4 mph4.7 mph4.8 mph5.3 mph4.8 mph6.6 mph5 mph4.8 mph5.5 mph5.3 mph7.7 mph8.8 mph9.3 mph8.4 mph7.4 mph7.2 mph6.6 mph5.3 mph3.9 mph3.7 mph3.9 mph3.8 mph4 mph5.4 mph1.8 mph1.4 mph2.2 mph2.2 mph2.7 mph0.9 mph0.4 mph1.4 mph2 mph2.3 mph2.4 mph3.5 mph4.7 mph4.9 mph5.2 mph5.3 mph5.7 mph
Wind
Direction
17°
NNE
26°
NNE
31°
NNE
43°
NE
45°
NE
56°
NE
81°
E
83°
E
90°
E
97°
E
107°
ESE
104°
ESE
120°
ESE
112°
ESE
126°
SE
119°
ESE
120°
ESE
142°
SE
148°
SSE
157°
SSE
166°
SSE
177°
S
181°
S
179°
S
189°
S
192°
SSW
173°
S
180°
S
163°
SSE
156°
SSE
163°
SSE
177°
S
189°
S
192°
SSW
192°
SSW
194°
SSW
272°
W
19°
NNE
132°
SE
113°
ESE
120°
ESE
119°
ESE
97°
E
95°
E
110°
ESE
127°
SE
135°
SE
128°
SE

Daily Forecast

Date High Low Precip. Humidity
Today
Dec 6

Rain
49 °F
30 °F
40%
32%
Tuesday
Dec 7

Clouds
48 °F
28 °F
0%
31%
Wednesday
Dec 8

Clear
59 °F
36 °F
0%
41%
Thursday
Dec 9

Clouds
68 °F
51 °F
0%
57%
Friday
Dec 10

Clouds
74 °F
58 °F
8%
49%
Saturday
Dec 11

Clouds
63 °F
34 °F
0%
48%
Sunday
Dec 12

Clear
50 °F
29 °F
0%
26%
Monday
Dec 13

Clear
53 °F
32 °F
0%
27%
Tuesday
Dec 14

Clouds
60 °F
42 °F
0%
58%
Wednesday
Dec 15

Clear
65 °F
51 °F
0%
64%
Thursday
Dec 16

Rain
63 °F
58 °F
30%
77%
Friday
Dec 17

Rain
62 °F
48 °F
60%
81%
Saturday
Dec 18

Rain
61 °F
44 °F
98%
90%
Sunday
Dec 19

Clouds
55 °F
37 °F
0%
45%
Monday
Dec 20

Rain
46 °F
34 °F
38%
44%
Tuesday
Dec 21

Clouds
42 °F
27 °F
0%
27%

Temperature 8-14 Day Outlook



Precipitation 8-14 Day Outlook




Quick Links
Beaver Lake News
Beaver Lake Photos
Beaver Lake Videos




About Us
Contact Us
Site Map
Search Site
Advertise With Us
   
Beaver.USLakes.info
THE BEAVER LAKE WEBSITE

Copyright 2021, Lakes Online
Privacy    |    Legal